Tracking 31027 objects as of 19-Jul-2025
HD Live streaming from Space Station
objects crossing your sky now

STARLINK-5908

Track STARLINK-5908 now!
10-day predictions
STARLINK-5908 is classified as:


NORAD ID: 55951
Int'l Code: 2023-037AP
Perigee: 577.0 km
Apogee: 581.4 km
Inclination: 70.0 °
Period: 96.1 minutes
Semi major axis: 6950 km
RCS: Unknown
Launch date: March 17, 2023
Source: United States (US)
Launch site: AIR FORCE WESTERN TEST RANGE (AFWTR)
Your satellite tracking list
FLOCK 3P 17
Track 1 satellite(s)




NASA's NSSDC Master Catalog

Two Line Element Set (TLE):
1 55951U 23037AP  25199.62208223  .00000408  00000-0  41959-4 0  9995
2 55951  69.9998 154.4398 0003220 266.9836  93.0955 14.98329888128921
Source of the keplerian elements: AFSPC